Weather History for Chattanooga, TN

Change the Weather History Date:

Monday, June 9, 2014

  Actual Average Record
Temperature  
Mean Temperature 75 °F 75 °F  
Max Temperature 84 °F 86 °F 97 °F (1898)
Min Temperature 65 °F 64 °F 52 °F (1931)
Degree Days  
Heating Degree Days 0 0  
Month to date heating degree days 0 0  
Since 1 June heating degree days 0 0  
Since 1 July heating degree days 3396 3238  
Cooling Degree Days 10 10  
Month to date cooling degree days 108 83  
Year to date cooling degree days 366 279  
Since 1 June cooling degree days 108 83  
Growing Degree Days 24 (Base 50)    
Moisture  
Dew Point 62 °F    
Average Humidity 66    
Maximum Humidity 81    
Minimum Humidity 51    
Precipitation  
Precipitation 0.34 in 0.13 in 1.32 in (1950)
Month to date precipitation 0.92 1.14  
Year to date precipitation 18.21 23.96  
Snow  
Snow 0.00 in 0.00 in - ()
Month to date snowfall 0.0 0.0  
Since 1 June snowfall 0.0 0.0  
Since 1 July snowfall 8.4 3.9  
Snow Depth 0.00 in    
Sea Level Pressure  
Sea Level Pressure 29.93 in    
Wind  
Wind Speed 5 mph (WSW)    
Max Wind Speed 23 mph    
Max Gust Speed 30 mph    
Visibility 8 miles    
Events Rain , Thunderstorm    
T = Trace of Precipitation, MM = Missing Value Source: NWS Daily Summary

Daily Weather History Graph

Daily Weather History Graph

Search for Another Location

Airport:

Trip Planner

Search our weather history database for the weather conditions in past years. The results will help you decide how hot, cold, wet, or windy it might be!

Date:

Astronomy

Jun. 09, 2014 Rise Set
Actual Time 6:26 AM EDT 8:54 PM EDT
Civil Twilight 5:56 AM EDT 9:23 PM EDT
Nautical Twilight 5:20 AM EDT 10:00 PM EDT
Astronomical Twilight 4:40 AM EDT 10:40 PM EDT
Moon 5:21 PM EDT (6/9) 3:44 AM EDT (6/9)
Length of Visible Light 15h 26m
Length of Day
14h 27m
Waxing Gibbous, 85% of the Moon is Illuminated
Jun 9
Waxing Gibbous
Jun 13
Full
Jun 19
Last Quarter
Jun 27
New
Jul 5
First Quarter

Hourly Weather History & Observations

Time (EDT) Temp. Heat Index Dew Point Humidity Pressure Visibility Wind Dir Wind Speed Gust Speed Precip Events Conditions
12:53 AM 71.1 °F - 60.1 °F 68% 29.95 in 10.0 mi NNE 8.1 mph - N/A   Clear
1:53 AM 69.1 °F - 59.0 °F 70% 29.93 in 10.0 mi NNE 4.6 mph - N/A   Clear
2:53 AM 66.9 °F - 60.1 °F 79% 29.93 in 10.0 mi NW 3.5 mph - N/A   Clear
3:53 AM 66.0 °F - 60.1 °F 81% 29.92 in 10.0 mi NW 4.6 mph - N/A   Clear
4:53 AM 66.0 °F - 60.1 °F 81% 29.91 in 10.0 mi NNW 3.5 mph - N/A   Clear
5:53 AM 66.0 °F - 60.1 °F 81% 29.92 in 10.0 mi Calm Calm - N/A   Mostly Cloudy
6:53 AM 66.9 °F - 59.0 °F 76% 29.92 in 10.0 mi NNE 4.6 mph - N/A   Mostly Cloudy
7:53 AM 68.0 °F - 59.0 °F 73% 29.93 in 10.0 mi North 8.1 mph - N/A   Mostly Cloudy
8:48 AM 69.8 °F - 57.2 °F 64% 29.97 in 7.0 mi Calm Calm - N/A Thunderstorm Thunderstorm
8:53 AM 69.1 °F - 57.9 °F 68% 30.00 in 5.0 mi WSW 6.9 mph - 0.00 in Rain , Thunderstorm Thunderstorms and Rain
8:56 AM 68.0 °F - 60.1 °F 76% 30.04 in 1.0 mi WSW 15.0 mph 20.7 mph N/A Rain , Thunderstorm Heavy Thunderstorms and Rain
8:58 AM 66.9 °F - 61.0 °F 81% 30.03 in 0.8 mi West 10.4 mph 20.7 mph 0.04 in Rain , Thunderstorm Heavy Thunderstorms and Rain
9:02 AM 64.9 °F - 61.0 °F 87% 30.01 in 1.0 mi Calm Calm - 0.19 in Rain , Thunderstorm Heavy Thunderstorms and Rain
9:04 AM 64.9 °F - 61.0 °F 87% 30.01 in 1.2 mi Calm Calm - 0.23 in Rain , Thunderstorm Heavy Thunderstorms and Rain
9:09 AM 64.9 °F - 61.0 °F 87% 30.00 in 2.0 mi Calm Calm - 0.24 in Rain , Thunderstorm Light Thunderstorms and Rain
9:48 AM 64.4 °F - 62.6 °F 94% 29.96 in 5.0 mi ENE 5.8 mph - 0.30 in Rain Light Rain
9:53 AM 64.9 °F - 62.1 °F 90% 29.94 in 5.0 mi ENE 3.5 mph - 0.31 in Rain Light Rain
10:53 AM 66.2 °F - 62.6 °F 88% 29.95 in 7.0 mi Calm Calm - N/A   Mostly Cloudy
11:53 AM 69.1 °F - 63.0 °F 81% 29.93 in 7.0 mi Variable 3.5 mph - 0.00 in   Light Drizzle
12:50 PM 71.6 °F - 64.4 °F 78% 29.97 in 8.0 mi SSW 6.9 mph - 0.00 in   Mostly Cloudy
12:53 PM 71.1 °F - 64.0 °F 78% 29.95 in 8.0 mi South 5.8 mph - 0.00 in   Mostly Cloudy
1:50 PM 73.4 °F - 64.4 °F 73% 29.95 in 10.0 mi Calm Calm - N/A   Mostly Cloudy
2:53 PM 77.0 °F - 64.9 °F 66% 29.90 in 10.0 mi Variable 3.5 mph - N/A   Mostly Cloudy
3:53 PM 82.0 °F 84.1 °F 66.0 °F 58% 29.88 in 10.0 mi SSW 11.5 mph - N/A   Mostly Cloudy
4:53 PM 82.0 °F 83.8 °F 64.9 °F 56% 29.88 in 10.0 mi South 6.9 mph - N/A   Mostly Cloudy
5:53 PM 82.0 °F 83.4 °F 64.0 °F 54% 29.87 in 10.0 mi Variable 5.8 mph - N/A   Mostly Cloudy
6:53 PM 82.0 °F 83.0 °F 62.1 °F 51% 29.87 in 10.0 mi SW 5.8 mph - N/A   Mostly Cloudy
7:53 PM 81.0 °F 82.7 °F 64.9 °F 58% 29.87 in 10.0 mi SSE 4.6 mph - N/A   Scattered Clouds
8:53 PM 79.0 °F - 66.0 °F 64% 29.88 in 10.0 mi SSE 3.5 mph - N/A   Scattered Clouds
9:53 PM 75.9 °F - 66.9 °F 74% 29.88 in 10.0 mi SE 3.5 mph - N/A   Scattered Clouds
10:53 PM 75.0 °F - 66.9 °F 76% 29.91 in 10.0 mi Calm Calm - N/A   Mostly Cloudy
11:53 PM 73.9 °F - 66.9 °F 79% 29.91 in 10.0 mi Calm Calm - N/A   Mostly Cloudy